Weather History for KCOF - April, 2014

Change the Weather History Date:

Wednesday, April 2, 2014

  Actual Average Record
Temperature  
Mean Temperature 70 °F -  
Max Temperature 76 °F 76 °F 87 °F (2009)
Min Temperature 63 °F 63 °F 55 °F (2004)
Cooling Degree Days 4    
Growing Degree Days 20 (Base 50)    
Moisture  
Dew Point 60 °F    
Average Humidity 70    
Maximum Humidity 87    
Minimum Humidity 54    
Precipitation  
Precipitation 0.00 in - - ()
Sea Level Pressure  
Sea Level Pressure 30.19 in    
Wind  
Wind Speed 7 mph (SSE)    
Max Wind Speed 14 mph    
Max Gust Speed -    
Visibility 10 miles    
Events      
Averages and records for this station are not official NWS values.
T = Trace of Precipitation, MM = Missing Value Source: NWS Daily Summary

Daily Weather History Graph

Daily Weather History Graph

Search for Another Location

Airport or City:

Trip Planner

Search our weather history database for the weather conditions in past years. The results will help you decide how hot, cold, wet, or windy it might be!

Date:

Astronomy

Apr. 02, 2014 Rise Set
Actual Time 7:11 AM EDT 7:40 PM EDT
Civil Twilight 6:47 AM EDT 8:04 PM EDT
Nautical Twilight 6:20 AM EDT 8:32 PM EDT
Astronomical Twilight 5:52 AM EDT 9:00 PM EDT
Moon 9:08 AM EDT (4/2) 10:47 PM EDT (4/2)
Length of Visible Light 13h 16m
Length of Day
12h 29m
Waxing Crescent, 10% of the Moon is Illuminated
Apr 2
Waxing Crescent
Apr 7
First Quarter
Apr 15
Full
Apr 22
Last Quarter
Apr 29
New

Hourly Weather History & Observations

Time (EDT) Temp. Dew Point Humidity Pressure Visibility Wind Dir Wind Speed Gust Speed Precip Events Conditions
12:58 AM 67.3 °F 61.3 °F 81% 30.19 in 10.0 mi SE 5.8 mph - N/A   Clear
1:58 AM 67.3 °F 58.6 °F 74% 30.17 in 10.0 mi SE 6.9 mph - N/A   Clear
2:58 AM 67.1 °F 59.0 °F 75% 30.17 in 10.0 mi SSE 4.6 mph - N/A   Clear
3:58 AM 65.5 °F 57.2 °F 75% 30.16 in 10.0 mi SSE 4.6 mph - N/A   Clear
4:58 AM 63.1 °F 58.3 °F 84% 30.17 in 10.0 mi South 4.6 mph - N/A   Clear
5:58 AM 63.7 °F 59.5 °F 86% 30.17 in 10.0 mi South 4.6 mph - N/A   Clear
6:58 AM 63.0 °F 59.2 °F 87% 30.19 in 10.0 mi South 4.6 mph - N/A   Clear
8:58 AM 68.4 °F 60.6 °F 76% 30.22 in 10.0 mi WSW 4.6 mph - N/A   Clear
9:58 AM 72.3 °F 60.1 °F 65% 30.22 in 10.0 mi SSE 8.1 mph - N/A   Clear
10:58 AM 73.6 °F 59.5 °F 61% 30.22 in 10.0 mi SE 8.1 mph - N/A   Clear
11:58 AM 75.4 °F 59.4 °F 57% 30.22 in 10.0 mi South 10.4 mph - N/A   Clear
12:58 PM 76.1 °F 58.3 °F 54% 30.22 in 10.0 mi SSE 10.4 mph - N/A   Clear
1:58 PM 76.1 °F 58.6 °F 55% 30.21 in 10.0 mi SE 11.5 mph - N/A   Clear
2:58 PM 76.1 °F 58.8 °F 55% 30.19 in 10.0 mi SE 11.5 mph - N/A   Clear
3:58 PM 75.7 °F 59.4 °F 57% 30.17 in 10.0 mi SE 13.8 mph - N/A   Clear
4:58 PM 75.4 °F 60.4 °F 60% 30.17 in 10.0 mi ESE 13.8 mph - N/A   Clear
5:58 PM 74.1 °F 60.8 °F 63% 30.17 in 10.0 mi SE 11.5 mph - N/A   Clear
6:58 PM 72.7 °F 62.4 °F 70% 30.17 in 10.0 mi ESE 11.5 mph - N/A   Clear
7:58 PM 70.7 °F 63.7 °F 78% 30.19 in 10.0 mi ESE 8.1 mph - N/A   Clear
8:58 PM 70.2 °F 64.0 °F 81% 30.19 in 10.0 mi SE 9.2 mph - N/A   Clear
9:58 PM 69.8 °F 63.9 °F 81% 30.19 in 10.0 mi SE 11.5 mph - N/A   Clear